This is the latest recevied weather packets stored in our database for station/object KB1JLI. If no packets are shown the sender has not sent any weather packets the latest 1 day(s).
| Time | Temp. | Humidity | Pressure | Rain* | Wind** | Luminosity | Snow |
|---|---|---|---|---|---|---|---|
| 1777992296 | 22.78° C | 53% | 1009.7 hPa | 0 mm | 0.89 m/s, 200° | 297 W/m² | - |
| 1777991994 | 21.67° C | 54% | 1009.8 hPa | 0 mm | 0.89 m/s, 208° | 156 W/m² | - |
| 1777991691 | 21.67° C | 53% | 1009.9 hPa | 0 mm | 2.68 m/s, 205° | 165 W/m² | - |
| 1777991388 | 21.67° C | 53% | 1010 hPa | 0 mm | 2.68 m/s, 178° | 653 W/m² | - |
| 1777991085 | 20.56° C | 56% | 1009.7 hPa | 0 mm | 0.89 m/s, 197° | 653 W/m² | - |
| 1777990783 | 20.56° C | 57% | 1009.5 hPa | 0 mm | 1.34 m/s, 158° | 360 W/m² | - |
| 1777990480 | 20.56° C | 56% | 1009.4 hPa | 0 mm | 0.89 m/s, 175° | 186 W/m² | - |
| 1777990177 | 20° C | 59% | 1009.7 hPa | 0 mm | 0.45 m/s, 223° | 271 W/m² | - |
| 1777989873 | 20° C | 59% | 1009.6 hPa | 0 mm | 0.45 m/s, 201° | 142 W/m² | - |
| 1777989571 | 20.56° C | 58% | 1009.7 hPa | 0 mm | 0.45 m/s, 258° | 389 W/m² | - |
| 1777989266 | 19.44° C | 61% | 1009.6 hPa | 0 mm | 0 m/s | 521 W/m² | - |
| 1777988963 | 19.44° C | 62% | 1009.7 hPa | 0 mm | 2.68 m/s, 210° | 483 W/m² | - |
| 1777988660 | 18.33° C | 65% | 1009.9 hPa | 0 mm | 0 m/s | 450 W/m² | - |
| 1777988356 | 17.78° C | 67% | 1009.7 hPa | 0 mm | 0 m/s | 190 W/m² | - |
| 1777988054 | 18.33° C | 65% | 1009.8 hPa | 0 mm | 1.34 m/s, 221° | 127 W/m² | - |
| 1777987749 | 18.89° C | 60% | 1010 hPa | 0 mm | 0.45 m/s, 56° | 45 W/m² | - |
| 1777987446 | 18.89° C | 59% | 1010.1 hPa | 0 mm | 2.24 m/s, 198° | 56 W/m² | - |
| 1777987143 | 18.89° C | 60% | 1009.9 hPa | 0 mm | 0.89 m/s, 242° | 82 W/m² | - |
| 1777986840 | 19.44° C | 58% | 1009.8 hPa | 0 mm | 2.68 m/s, 198° | 159 W/m² | - |
| 1777986538 | 19.44° C | 58% | 1009.7 hPa | 0 mm | 0.89 m/s, 356° | 499 W/m² | - |
| 1777986236 | 18.89° C | 59% | 1010 hPa | 0 mm | 0.45 m/s, 235° | 409 W/m² | - |
| 1777985933 | 18.89° C | 60% | 1010 hPa | 0 mm | 2.68 m/s, 148° | 375 W/m² | - |
| 1777985631 | 18.33° C | 62% | 1009.8 hPa | 0 mm | 2.24 m/s, 185° | 379 W/m² | - |
| 1777985327 | 18.33° C | 61% | 1009.8 hPa | 0 mm | 1.79 m/s, 249° | 379 W/m² | - |
| 1777985024 | 17.78° C | 62% | 1009.6 hPa | 0 mm | 1.34 m/s, 221° | 431 W/m² | - |
* Rain latest hour (hover to see other rain measurements)
** Current wind speed in m/s (hover to see current wind gust speed)